Location: Newark
(49.2191°N, 12.6671°E)
Time: 17:16:45
(UTC+00:00)

Transit 4A - Pass Details

Date: 30 January 2020
Orbit: 872 x 973 km, 66.8° (Epoch: 22 February)

Event Time Altitude Azimuth Distance (km) Brightness Sun altitude
Rises 06:52:32 0° 261° (W) 3,518 10.4 0.4°
Reaches altitude 10° 06:55:32 10° 274° (W) 2,565 9.7 0.8°
Maximum altitude 07:00:20 25° 329° (NNW) 1,721 8.9 1.5°
Drops below altitude 10° 07:05:05 10° 23° (NNE) 2,538 10.1 2.2°
Sets 07:08:03 0° 37° (NE) 3,473 11.0 2.6°
